Time,TemperatureF,DewpointF,PressureIn,WindDirection,WindDirectionDegrees,WindSpeedMPH,WindSpeedGustMPH,Humidity,HourlyPrecipIn,Conditions,Clouds,dailyrainin,SolarRadiationWatts/m^2,SoftwareType,DateUTC
2013-01-18 00:00:00,32.8,32.3,30.06,North,32767,-999.0,0.0,98,0.05,,,0.96,0,Wunderground v.1.15,2013-01-18 05:00:00,
2013-01-18 00:05:00,32.8,32.3,30.05,North,32767,-999.0,0.0,98,0.05,,,0.01,0,Wunderground v.1.15,2013-01-18 05:05:00,
2013-01-18 00:10:00,32.8,32.3,30.05,North,32767,-999.0,0.0,98,0.05,,,0.01,0,Wunderground v.1.15,2013-01-18 05:10:00,
2013-01-18 00:15:00,32.9,32.7,30.05,North,32767,-999.0,0.0,99,0.05,,,0.01,0,Wunderground v.1.15,2013-01-18 05:15:00,
2013-01-18 00:20:00,32.9,32.7,30.04,North,32767,-999.0,0.0,99,0.04,,,0.01,0,Wunderground v.1.15,2013-01-18 05:20:00,
2013-01-18 00:25:00,32.9,32.7,30.04,North,32767,-999.0,0.0,99,0.00,,,0.01,0,Wunderground v.1.15,2013-01-18 05:25:00,
2013-01-18 00:30:00,33.1,32.9,30.04,North,32767,-999.0,0.0,99,0.00,,,0.01,0,Wunderground v.1.15,2013-01-18 05:30:00,
2013-01-18 00:40:00,33.2,33.0,30.04,North,32767,-999.0,0.0,99,0.00,,,0.01,0,Wunderground v.1.15,2013-01-18 05:40:00,
2013-01-18 00:45:00,33.4,33.4,30.04,North,32767,-999.0,0.0,100,0.00,,,0.01,0,Wunderground v.1.15,2013-01-18 05:45:00,
2013-01-18 00:50:00,33.4,33.1,30.05,North,32767,-999.0,0.0,99,0.00,,,0.01,0,Wunderground v.1.15,2013-01-18 05:50:00,
2013-01-18 00:55:00,33.2,33.0,30.05,North,32767,-999.0,0.0,99,0.00,,,0.01,0,Wunderground v.1.15,2013-01-18 05:55:00,
2013-01-18 01:05:00,33.1,32.9,30.07,North,32767,-999.0,0.0,99,0.00,,,0.01,0,Wunderground v.1.15,2013-01-18 06:05:00,
2013-01-18 01:10:00,33.2,33.2,30.07,North,32767,-999.0,0.0,100,0.00,,,0.01,0,Wunderground v.1.15,2013-01-18 06:10:00,
2013-01-18 01:15:00,33.2,33.2,30.07,North,32767,-999.0,0.0,100,0.00,,,0.01,0,Wunderground v.1.15,2013-01-18 06:15:00,
2013-01-18 01:25:00,33.2,33.2,30.08,North,32767,-999.0,0.0,100,0.00,,,0.01,0,Wunderground v.1.15,2013-01-18 06:25:00,
2013-01-18 01:35:00,33.4,33.4,30.09,North,32767,-999.0,0.0,100,0.00,,,0.01,0,Wunderground v.1.15,2013-01-18 06:35:00,
2013-01-18 01:40:00,33.4,33.4,30.09,North,32767,-999.0,0.0,100,0.00,,,0.01,0,Wunderground v.1.15,2013-01-18 06:40:00,
2013-01-18 01:45:00,33.4,33.4,30.09,North,32767,-999.0,0.0,100,0.00,,,0.01,0,Wunderground v.1.15,2013-01-18 06:45:00,
2013-01-18 01:55:00,33.4,33.4,30.10,North,32767,-999.0,0.0,100,0.00,,,0.01,0,Wunderground v.1.15,2013-01-18 06:55:00,
2013-01-18 02:00:00,33.4,33.4,30.10,North,32767,-999.0,0.0,100,0.00,,,0.01,0,Wunderground v.1.15,2013-01-18 07:00:00,
2013-01-18 02:10:00,33.2,33.2,30.11,North,32767,-999.0,0.0,100,0.00,,,0.01,0,Wunderground v.1.15,2013-01-18 07:10:00,
2013-01-18 02:15:00,33.2,33.2,30.11,North,32767,-999.0,0.0,100,0.00,,,0.01,0,Wunderground v.1.15,2013-01-18 07:15:00,
2013-01-18 02:25:00,33.4,33.4,30.12,North,32767,-999.0,0.0,100,0.00,,,0.01,0,Wunderground v.1.15,2013-01-18 07:25:00,
2013-01-18 02:30:00,33.2,33.2,30.12,North,32767,-999.0,0.0,100,0.00,,,0.01,0,Wunderground v.1.15,2013-01-18 07:30:00,
2013-01-18 02:40:00,33.1,33.1,30.12,North,32767,-999.0,0.0,100,0.00,,,0.01,0,Wunderground v.1.15,2013-01-18 07:40:00,
2013-01-18 02:45:00,33.1,33.1,30.12,North,32767,-999.0,0.0,100,0.00,,,0.01,0,Wunderground v.1.15,2013-01-18 07:45:00,
2013-01-18 02:50:00,32.9,32.9,30.12,North,32767,-999.0,0.0,100,0.00,,,0.01,0,Wunderground v.1.15,2013-01-18 07:50:00,
2013-01-18 02:55:00,32.9,32.7,30.12,North,32767,-999.0,0.0,99,0.00,,,0.01,0,Wunderground v.1.15,2013-01-18 07:55:00,
2013-01-18 03:05:00,32.8,32.8,30.12,North,32767,-999.0,0.0,100,0.00,,,0.01,0,Wunderground v.1.15,2013-01-18 08:05:00,
2013-01-18 03:10:00,32.8,32.8,30.12,North,32767,-999.0,0.0,100,0.00,,,0.01,0,Wunderground v.1.15,2013-01-18 08:10:00,
2013-01-18 03:20:00,32.8,32.8,30.12,North,32767,-999.0,0.0,100,0.00,,,0.01,0,Wunderground v.1.15,2013-01-18 08:20:00,
2013-01-18 03:25:00,32.8,32.8,30.12,North,32767,-999.0,0.0,100,0.00,,,0.01,0,Wunderground v.1.15,2013-01-18 08:25:00,
2013-01-18 03:35:00,32.7,32.7,30.13,North,32767,-999.0,0.0,100,0.00,,,0.01,0,Wunderground v.1.15,2013-01-18 08:35:00,
2013-01-18 03:40:00,32.7,32.7,30.13,North,32767,-999.0,0.0,100,0.00,,,0.01,0,Wunderground v.1.15,2013-01-18 08:40:00,
2013-01-18 03:50:00,32.7,32.7,30.13,North,32767,-999.0,0.0,100,0.00,,,0.01,0,Wunderground v.1.15,2013-01-18 08:50:00,
2013-01-18 03:55:00,32.7,32.7,30.13,North,32767,-999.0,0.0,100,0.00,,,0.01,0,Wunderground v.1.15,2013-01-18 08:55:00,
2013-01-18 04:00:00,32.7,32.7,30.13,North,32767,-999.0,0.0,100,0.00,,,0.01,0,Wunderground v.1.15,2013-01-18 09:00:00,
2013-01-18 04:05:00,32.7,32.7,30.14,North,32767,-999.0,0.0,100,0.00,,,0.01,0,Wunderground v.1.15,2013-01-18 09:05:00,
2013-01-18 04:10:00,32.5,32.5,30.14,North,32767,-999.0,0.0,100,0.00,,,0.01,0,Wunderground v.1.15,2013-01-18 09:10:00,
2013-01-18 04:20:00,32.5,32.5,30.14,North,32767,-999.0,0.0,100,0.00,,,0.01,0,Wunderground v.1.15,2013-01-18 09:20:00,
2013-01-18 04:30:00,32.4,32.4,30.14,North,32767,-999.0,0.0,100,0.00,,,0.01,0,Wunderground v.1.15,2013-01-18 09:30:00,
2013-01-18 04:35:00,32.5,32.5,30.15,North,32767,-999.0,0.0,100,0.00,,,0.01,0,Wunderground v.1.15,2013-01-18 09:35:00,
2013-01-18 04:40:00,32.5,32.5,30.15,North,32767,-999.0,0.0,100,0.00,,,0.01,0,Wunderground v.1.15,2013-01-18 09:40:00,
2013-01-18 04:50:00,32.4,31.9,30.16,North,32767,-999.0,0.0,98,0.00,,,0.01,0,Wunderground v.1.15,2013-01-18 09:50:00,
2013-01-18 04:55:00,32.4,31.9,30.16,North,32767,-999.0,0.0,98,0.00,,,0.01,0,Wunderground v.1.15,2013-01-18 09:55:00,
2013-01-18 05:05:00,32.4,31.4,30.17,North,32767,-999.0,0.0,96,0.00,,,0.01,0,Wunderground v.1.15,2013-01-18 10:05:00,
2013-01-18 05:10:00,32.4,31.1,30.17,North,32767,-999.0,0.0,95,0.00,,,0.01,0,Wunderground v.1.15,2013-01-18 10:10:00,
2013-01-18 05:15:00,32.4,31.1,30.17,North,32767,-999.0,0.0,95,0.00,,,0.01,0,Wunderground v.1.15,2013-01-18 10:15:00,
2013-01-18 05:25:00,32.4,30.9,30.17,North,32767,-999.0,0.0,94,0.00,,,0.01,0,Wunderground v.1.15,2013-01-18 10:25:00,
2013-01-18 05:35:00,32.4,30.9,30.18,North,32767,-999.0,0.0,94,0.00,,,0.01,0,Wunderground v.1.15,2013-01-18 10:35:00,
2013-01-18 05:45:00,32.4,30.6,30.18,North,32767,-999.0,0.0,93,0.00,,,0.01,0,Wunderground v.1.15,2013-01-18 10:45:00,
2013-01-18 05:50:00,32.5,30.2,30.18,North,32767,-999.0,0.0,91,0.00,,,0.01,0,Wunderground v.1.15,2013-01-18 10:50:00,
2013-01-18 05:55:00,32.5,30.2,30.18,North,32767,-999.0,0.0,91,0.00,,,0.01,0,Wunderground v.1.15,2013-01-18 10:55:00,
2013-01-18 06:05:00,32.4,30.1,30.19,North,32767,-999.0,0.0,91,0.00,,,0.01,0,Wunderground v.1.15,2013-01-18 11:05:00,
2013-01-18 06:10:00,32.2,29.9,30.19,North,32767,-999.0,0.0,91,0.00,,,0.01,0,Wunderground v.1.15,2013-01-18 11:10:00,
2013-01-18 06:20:00,32.2,29.9,30.20,North,32767,-999.0,0.0,91,0.00,,,0.01,0,Wunderground v.1.15,2013-01-18 11:20:00,
2013-01-18 06:30:00,32.1,29.5,30.20,North,32767,-999.0,0.0,90,0.00,,,0.01,0,Wunderground v.1.15,2013-01-18 11:30:00,
2013-01-18 06:35:00,32.1,29.5,30.20,North,32767,-999.0,0.0,90,0.00,,,0.01,0,Wunderground v.1.15,2013-01-18 11:35:00,
2013-01-18 06:45:00,32.1,29.5,30.20,North,32767,-999.0,0.0,90,0.00,,,0.01,0,Wunderground v.1.15,2013-01-18 11:45:00,
2013-01-18 06:50:00,31.9,29.3,30.22,North,32767,-999.0,0.0,90,0.00,,,0.01,0,Wunderground v.1.15,2013-01-18 11:50:00,
2013-01-18 06:55:00,31.9,29.3,30.22,North,32767,-999.0,0.0,90,0.00,,,0.01,0,Wunderground v.1.15,2013-01-18 11:55:00,
2013-01-18 07:05:00,31.8,28.9,30.23,North,32767,-999.0,0.0,89,0.00,,,0.01,0,Wunderground v.1.15,2013-01-18 12:05:00,
2013-01-18 07:10:00,31.9,29.0,30.23,North,32767,-999.0,0.0,89,0.00,,,0.01,0,Wunderground v.1.15,2013-01-18 12:10:00,
2013-01-18 07:20:00,31.9,28.5,30.24,North,32767,-999.0,0.0,87,0.00,,,0.01,0,Wunderground v.1.15,2013-01-18 12:20:00,
2013-01-18 07:25:00,32.1,28.7,30.24,North,32767,-999.0,0.0,87,0.00,,,0.01,0,Wunderground v.1.15,2013-01-18 12:25:00,
2013-01-18 07:30:00,32.2,28.2,30.24,North,32767,-999.0,0.0,85,0.00,,,0.01,0,Wunderground v.1.15,2013-01-18 12:30:00,
2013-01-18 07:40:00,32.4,28.1,30.25,North,32767,-999.0,0.0,84,0.00,,,0.01,0,Wunderground v.1.15,2013-01-18 12:40:00,
2013-01-18 07:45:00,32.5,27.9,30.25,North,32767,-999.0,0.0,83,0.00,,,0.01,0,Wunderground v.1.15,2013-01-18 12:45:00,
2013-01-18 07:55:00,32.7,28.1,30.26,North,32767,-999.0,0.0,83,0.00,,,0.01,5,Wunderground v.1.15,2013-01-18 12:55:00,
2013-01-18 08:00:00,32.5,27.9,30.26,North,32767,-999.0,0.0,83,0.00,,,0.01,7,Wunderground v.1.15,2013-01-18 13:00:00,
2013-01-18 08:10:00,32.9,27.4,30.27,North,32767,-999.0,0.0,80,0.00,,,0.01,9,Wunderground v.1.15,2013-01-18 13:10:00,
2013-01-18 08:20:00,33.4,27.6,30.28,North,32767,-999.0,0.0,79,0.00,,,0.01,16,Wunderground v.1.15,2013-01-18 13:20:00,
2013-01-18 08:25:00,33.5,27.4,30.28,North,32767,-999.0,0.0,78,0.00,,,0.01,14,Wunderground v.1.15,2013-01-18 13:25:00,
2013-01-18 08:30:00,33.7,27.9,30.28,North,32767,-999.0,0.0,79,0.00,,,0.01,14,Wunderground v.1.15,2013-01-18 13:30:00,
2013-01-18 08:40:00,34.0,27.5,30.30,North,32767,-999.0,0.0,77,0.00,,,0.01,33,Wunderground v.1.15,2013-01-18 13:40:00,
2013-01-18 08:45:00,34.3,27.8,30.30,North,32767,-999.0,0.0,77,0.00,,,0.01,18,Wunderground v.1.15,2013-01-18 13:45:00,
2013-01-18 08:55:00,34.6,27.5,30.31,NNW,328,6.0,6.0,75,0.00,,,0.01,30,Wunderground v.1.15,2013-01-18 13:55:00,
2013-01-18 09:00:00,34.9,27.8,30.31,NW,325,3.0,6.0,75,0.00,,,0.01,77,Wunderground v.1.15,2013-01-18 14:00:00,
2013-01-18 09:10:00,35.2,28.4,30.32,North,3,2.0,6.0,76,0.00,,,0.01,35,Wunderground v.1.15,2013-01-18 14:10:00,
2013-01-18 09:15:00,35.3,28.5,30.32,NNW,344,2.0,6.0,76,0.00,,,0.01,33,Wunderground v.1.15,2013-01-18 14:15:00,
2013-01-18 09:25:00,35.6,28.5,30.33,NW,325,3.0,6.0,75,0.00,,,0.01,97,Wunderground v.1.15,2013-01-18 14:25:00,
2013-01-18 09:30:00,35.9,28.7,30.33,NNW,333,2.0,2.0,75,0.00,,,0.01,190,Wunderground v.1.15,2013-01-18 14:30:00,
2013-01-18 09:40:00,36.3,28.1,30.35,North,359,2.0,2.0,72,0.00,,,0.01,211,Wunderground v.1.15,2013-01-18 14:40:00,
2013-01-18 09:45:00,36.6,28.8,30.35,NW,319,2.0,4.0,73,0.00,,,0.01,93,Wunderground v.1.15,2013-01-18 14:45:00,
2013-01-18 09:50:00,36.6,29.1,30.37,NNW,337,3.0,3.0,74,0.00,,,0.01,35,Wunderground v.1.15,2013-01-18 14:50:00,
2013-01-18 10:00:00,36.9,29.4,30.37,NW,322,3.0,3.0,74,0.00,,,0.01,49,Wunderground v.1.15,2013-01-18 15:00:00,
2013-01-18 10:05:00,37.2,29.3,30.38,NW,326,2.0,4.0,73,0.00,,,0.01,35,Wunderground v.1.15,2013-01-18 15:05:00,
2013-01-18 10:10:00,37.3,28.8,30.38,NW,305,3.0,3.0,71,0.00,,,0.01,51,Wunderground v.1.15,2013-01-18 15:10:00,
2013-01-18 10:20:00,37.6,29.0,30.37,NNW,340,2.0,2.0,71,0.00,,,0.01,150,Wunderground v.1.15,2013-01-18 15:20:00,
2013-01-18 10:30:00,37.9,28.6,30.37,North,3,1.0,1.0,69,0.00,,,0.01,204,Wunderground v.1.15,2013-01-18 15:30:00,
2013-01-18 10:40:00,38.5,29.9,30.38,North,349,0.0,0.0,71,0.00,,,0.01,46,Wunderground v.1.15,2013-01-18 15:40:00,
2013-01-18 10:45:00,38.5,29.2,30.38,NNW,340,1.0,7.0,69,0.00,,,0.01,206,Wunderground v.1.15,2013-01-18 15:45:00,
2013-01-18 10:50:00,38.6,28.2,30.37,North,0,3.0,4.0,66,0.00,,,0.01,246,Wunderground v.1.15,2013-01-18 15:50:00,
2013-01-18 11:00:00,39.2,28.4,30.37,NNW,335,1.0,1.0,65,0.00,,,0.01,336,Wunderground v.1.15,2013-01-18 16:00:00,
2013-01-18 11:10:00,39.5,27.9,30.38,NW,318,1.0,1.0,63,0.00,,,0.01,99,Wunderground v.1.15,2013-01-18 16:10:00,
2013-01-18 11:15:00,39.8,28.2,30.38,North,0,1.0,1.0,63,0.00,,,0.01,311,Wunderground v.1.15,2013-01-18 16:15:00,
2013-01-18 11:20:00,39.9,27.1,30.38,NW,316,2.0,7.0,60,0.00,,,0.01,382,Wunderground v.1.15,2013-01-18 16:20:00,
2013-01-18 11:30:00,39.8,29.4,30.38,NW,323,4.0,4.0,66,0.00,,,0.01,269,Wunderground v.1.15,2013-01-18 16:30:00,
2013-01-18 11:35:00,39.9,27.5,30.38,NNW,346,2.0,4.0,61,0.00,,,0.01,113,Wunderground v.1.15,2013-01-18 16:35:00,
2013-01-18 11:45:00,40.2,27.0,30.38,NNW,344,4.0,4.0,59,0.00,,,0.01,171,Wunderground v.1.15,2013-01-18 16:45:00,
2013-01-18 11:50:00,40.5,27.3,30.37,NNW,337,2.0,2.0,59,0.00,,,0.01,139,Wunderground v.1.15,2013-01-18 16:50:00,
2013-01-18 11:55:00,40.6,26.5,30.37,NNW,328,2.0,4.0,57,0.00,,,0.01,287,Wunderground v.1.15,2013-01-18 16:55:00,
2013-01-18 12:05:00,40.8,26.3,30.37,NNE,24,3.0,3.0,56,0.00,,,0.01,100,Wunderground v.1.15,2013-01-18 17:05:00,
2013-01-18 12:10:00,40.9,28.1,30.37,NNW,337,2.0,2.0,60,0.00,,,0.01,297,Wunderground v.1.15,2013-01-18 17:10:00,
2013-01-18 12:20:00,40.8,25.9,30.36,North,6,0.0,0.0,55,0.00,,,0.01,236,Wunderground v.1.15,2013-01-18 17:20:00,
2013-01-18 12:25:00,40.9,27.2,30.36,North,349,0.0,0.0,58,0.00,,,0.01,445,Wunderground v.1.15,2013-01-18 17:25:00,
2013-01-18 12:30:00,40.9,26.0,30.36,NNW,337,0.0,0.0,55,0.00,,,0.01,208,Wunderground v.1.15,2013-01-18 17:30:00,
2013-01-18 12:40:00,41.2,26.7,30.36,North,8,0.0,0.0,56,0.00,,,0.01,227,Wunderground v.1.15,2013-01-18 17:40:00,
2013-01-18 12:45:00,41.6,28.7,30.36,NNE,30,0.0,0.0,60,0.00,,,0.01,292,Wunderground v.1.15,2013-01-18 17:45:00,
2013-01-18 12:55:00,41.9,25.1,30.36,NW,323,0.0,0.0,51,0.00,,,0.01,292,Wunderground v.1.15,2013-01-18 17:55:00,
2013-01-18 13:00:00,41.9,26.4,30.36,NNW,329,0.0,0.0,54,0.00,,,0.01,426,Wunderground v.1.15,2013-01-18 18:00:00,
2013-01-18 13:05:00,41.9,27.3,30.36,North,356,0.0,0.0,56,0.00,,,0.01,382,Wunderground v.1.15,2013-01-18 18:05:00,
2013-01-18 13:15:00,42.2,27.6,30.36,North,359,0.0,0.0,56,0.00,,,0.01,260,Wunderground v.1.15,2013-01-18 18:15:00,
2013-01-18 13:25:00,42.2,27.2,30.36,North,359,0.0,0.0,55,0.00,,,0.01,86,Wunderground v.1.15,2013-01-18 18:25:00,
2013-01-18 13:35:00,42.5,25.1,30.36,North,356,0.0,0.0,50,0.00,,,0.01,63,Wunderground v.1.15,2013-01-18 18:35:00,
2013-01-18 13:45:00,42.8,27.3,30.36,NNE,25,0.0,0.0,54,0.00,,,0.01,144,Wunderground v.1.15,2013-01-18 18:45:00,
2013-01-18 13:50:00,42.6,26.6,30.36,North,0,0.0,0.0,53,0.00,,,0.01,164,Wunderground v.1.15,2013-01-18 18:50:00,
2013-01-18 13:55:00,42.8,24.9,30.36,North,359,0.0,0.0,49,0.00,,,0.01,262,Wunderground v.1.15,2013-01-18 18:55:00,
2013-01-18 14:05:00,42.9,26.0,30.36,WNW,302,0.0,0.0,51,0.00,,,0.01,114,Wunderground v.1.15,2013-01-18 19:05:00,
2013-01-18 14:15:00,43.2,25.3,30.36,NNE,32,0.0,0.0,49,0.00,,,0.01,49,Wunderground v.1.15,2013-01-18 19:15:00,
2013-01-18 14:25:00,43.2,26.7,30.36,ENE,64,0.0,0.0,52,0.00,,,0.01,49,Wunderground v.1.15,2013-01-18 19:25:00,
2013-01-18 14:35:00,43.2,25.8,30.36,North,0,0.0,0.0,50,0.00,,,0.01,99,Wunderground v.1.15,2013-01-18 19:35:00,
2013-01-18 14:40:00,42.9,25.5,30.36,North,0,0.0,0.0,50,0.00,,,0.01,58,Wunderground v.1.15,2013-01-18 19:40:00,
2013-01-18 14:50:00,43.1,24.2,30.36,NNE,16,0.0,0.0,47,0.00,,,0.01,107,Wunderground v.1.15,2013-01-18 19:50:00,
2013-01-18 15:00:00,43.1,24.7,30.36,NW,325,0.0,0.0,48,0.00,,,0.01,95,Wunderground v.1.15,2013-01-18 20:00:00,
2013-01-18 15:05:00,43.2,25.8,30.36,North,352,0.0,0.0,50,0.00,,,0.01,99,Wunderground v.1.15,2013-01-18 20:05:00,
2013-01-18 15:10:00,43.2,25.3,30.36,NW,311,0.0,0.0,49,0.00,,,0.01,51,Wunderground v.1.15,2013-01-18 20:10:00,
2013-01-18 15:20:00,43.2,23.8,30.36,NNE,25,0.0,0.0,46,0.00,,,0.01,33,Wunderground v.1.15,2013-01-18 20:20:00,
2013-01-18 15:30:00,43.1,24.2,30.36,NNW,340,0.0,0.0,47,0.00,,,0.01,33,Wunderground v.1.15,2013-01-18 20:30:00,
2013-01-18 15:35:00,42.9,25.5,30.36,WNW,302,0.0,0.0,50,0.00,,,0.01,40,Wunderground v.1.15,2013-01-18 20:35:00,
2013-01-18 15:45:00,42.9,24.5,30.36,NNW,337,0.0,0.0,48,0.00,,,0.01,33,Wunderground v.1.15,2013-01-18 20:45:00,
2013-01-18 15:50:00,43.1,23.2,30.37,NNE,20,0.0,0.0,45,0.00,,,0.01,42,Wunderground v.1.15,2013-01-18 20:50:00,
2013-01-18 16:00:00,43.1,25.7,30.37,North,10,0.0,0.0,50,0.00,,,0.01,55,Wunderground v.1.15,2013-01-18 21:00:00,
2013-01-18 16:05:00,43.2,23.8,30.37,NE,41,0.0,0.0,46,0.00,,,0.01,40,Wunderground v.1.15,2013-01-18 21:05:00,
2013-01-18 16:10:00,43.2,25.8,30.37,NE,41,0.0,0.0,50,0.00,,,0.01,21,Wunderground v.1.15,2013-01-18 21:10:00,
2013-01-18 16:15:00,42.9,25.5,30.37,NE,41,0.0,0.0,50,0.00,,,0.01,25,Wunderground v.1.15,2013-01-18 21:15:00,
2013-01-18 16:25:00,42.8,27.3,30.38,North,32767,-999.0,0.0,54,0.00,,,0.01,26,Wunderground v.1.15,2013-01-18 21:25:00,
2013-01-18 16:30:00,42.5,25.6,30.38,North,32767,-999.0,0.0,51,0.00,,,0.01,18,Wunderground v.1.15,2013-01-18 21:30:00,
2013-01-18 16:40:00,42.3,27.7,30.38,North,32767,-999.0,0.0,56,0.00,,,0.01,16,Wunderground v.1.15,2013-01-18 21:40:00,
2013-01-18 16:45:00,42.3,27.3,30.38,North,32767,-999.0,0.0,55,0.00,,,0.01,14,Wunderground v.1.15,2013-01-18 21:45:00,
2013-01-18 16:55:00,41.9,24.6,30.39,North,32767,-999.0,0.0,50,0.00,,,0.01,9,Wunderground v.1.15,2013-01-18 21:55:00,
2013-01-18 17:05:00,41.8,25.9,30.39,North,32767,-999.0,0.0,53,0.00,,,0.01,5,Wunderground v.1.15,2013-01-18 22:05:00,
2013-01-18 17:15:00,41.5,26.5,30.39,North,32767,-999.0,0.0,55,0.00,,,0.01,0,Wunderground v.1.15,2013-01-18 22:15:00,
2013-01-18 17:25:00,40.9,26.0,30.40,North,32767,-999.0,0.0,55,0.00,,,0.01,0,Wunderground v.1.15,2013-01-18 22:25:00,
2013-01-18 17:35:00,40.5,26.0,30.41,North,32767,-999.0,0.0,56,0.00,,,0.01,0,Wunderground v.1.15,2013-01-18 22:35:00,
2013-01-18 17:40:00,40.3,27.5,30.41,North,32767,-999.0,0.0,60,0.00,,,0.01,0,Wunderground v.1.15,2013-01-18 22:40:00,
2013-01-18 17:50:00,39.8,26.6,30.41,North,32767,-999.0,0.0,59,0.00,,,0.01,0,Wunderground v.1.15,2013-01-18 22:50:00,
2013-01-18 18:00:00,39.3,25.7,30.41,North,32767,-999.0,0.0,58,0.00,,,0.01,0,Wunderground v.1.15,2013-01-18 23:00:00,
2013-01-18 18:10:00,39.1,26.0,30.41,North,32767,-999.0,0.0,59,0.00,,,0.01,0,Wunderground v.1.15,2013-01-18 23:10:00,
2013-01-18 18:15:00,38.5,26.6,30.41,North,32767,-999.0,0.0,62,0.00,,,0.01,0,Wunderground v.1.15,2013-01-18 23:15:00,
2013-01-18 18:25:00,38.3,26.8,30.42,North,32767,-999.0,0.0,63,0.00,,,0.01,0,Wunderground v.1.15,2013-01-18 23:25:00,
2013-01-18 18:30:00,38.3,24.0,30.42,North,32767,-999.0,0.0,56,0.00,,,0.01,0,Wunderground v.1.15,2013-01-18 23:30:00,
2013-01-18 18:40:00,38.5,23.7,30.42,North,32767,-999.0,0.0,55,0.00,,,0.01,0,Wunderground v.1.15,2013-01-18 23:40:00,
2013-01-18 18:50:00,38.6,24.2,30.42,North,32767,-999.0,0.0,56,0.00,,,0.01,0,Wunderground v.1.15,2013-01-18 23:50:00,
2013-01-18 18:55:00,38.5,25.0,30.42,North,32767,-999.0,0.0,58,0.00,,,0.01,0,Wunderground v.1.15,2013-01-18 23:55:00,
2013-01-18 19:00:00,38.5,24.1,30.42,North,32767,-999.0,0.0,56,0.00,,,0.01,0,Wunderground v.1.15,2013-01-19 00:00:00,
2013-01-18 19:10:00,38.3,24.4,30.42,North,32767,-999.0,0.0,57,0.00,,,0.01,0,Wunderground v.1.15,2013-01-19 00:10:00,
2013-01-18 19:15:00,38.2,24.7,30.42,North,32767,-999.0,0.0,58,0.00,,,0.01,0,Wunderground v.1.15,2013-01-19 00:15:00,
2013-01-18 19:20:00,38.2,24.7,30.42,North,32767,-999.0,0.0,58,0.00,,,0.01,0,Wunderground v.1.15,2013-01-19 00:20:00,
2013-01-18 19:30:00,38.0,24.9,30.42,North,32767,-999.0,0.0,59,0.00,,,0.01,0,Wunderground v.1.15,2013-01-19 00:30:00,
2013-01-18 19:40:00,37.9,24.4,30.43,North,32767,-999.0,0.0,58,0.00,,,0.01,0,Wunderground v.1.15,2013-01-19 00:40:00,
2013-01-18 19:45:00,37.8,23.9,30.43,North,32767,-999.0,0.0,57,0.00,,,0.01,0,Wunderground v.1.15,2013-01-19 00:45:00,
2013-01-18 19:50:00,37.8,24.3,30.43,North,32767,-999.0,0.0,58,0.00,,,0.01,0,Wunderground v.1.15,2013-01-19 00:50:00,
2013-01-18 20:00:00,38.0,24.5,30.43,North,32767,-999.0,0.0,58,0.00,,,0.01,0,Wunderground v.1.15,2013-01-19 01:00:00,
2013-01-18 20:10:00,38.0,23.7,30.43,North,32767,-999.0,0.0,56,0.00,,,0.01,0,Wunderground v.1.15,2013-01-19 01:10:00,
2013-01-18 20:20:00,38.3,23.5,30.43,North,32767,-999.0,0.0,55,0.00,,,0.01,0,Wunderground v.1.15,2013-01-19 01:20:00,
2013-01-18 20:25:00,38.5,24.1,30.43,North,32767,-999.0,0.0,56,0.00,,,0.01,0,Wunderground v.1.15,2013-01-19 01:25:00,
2013-01-18 20:35:00,38.6,23.8,30.43,North,32767,-999.0,0.0,55,0.00,,,0.01,0,Wunderground v.1.15,2013-01-19 01:35:00,
2013-01-18 20:40:00,38.5,23.7,30.43,North,32767,-999.0,0.0,55,0.00,,,0.01,0,Wunderground v.1.15,2013-01-19 01:40:00,
2013-01-18 20:50:00,38.9,23.2,30.43,North,32767,-999.0,0.0,53,0.00,,,0.01,0,Wunderground v.1.15,2013-01-19 01:50:00,
2013-01-18 20:55:00,39.1,23.4,30.43,North,32767,-999.0,0.0,53,0.00,,,0.01,0,Wunderground v.1.15,2013-01-19 01:55:00,
2013-01-18 21:00:00,38.9,23.2,30.43,North,32767,-999.0,0.0,53,0.00,,,0.01,0,Wunderground v.1.15,2013-01-19 02:00:00,
2013-01-18 21:05:00,38.9,23.2,30.43,North,32767,-999.0,0.0,53,0.00,,,0.01,0,Wunderground v.1.15,2013-01-19 02:05:00,
2013-01-18 21:15:00,38.5,22.8,30.43,North,32767,-999.0,0.0,53,0.00,,,0.01,0,Wunderground v.1.15,2013-01-19 02:15:00,
2013-01-18 21:25:00,38.3,22.6,30.43,North,32767,-999.0,0.0,53,0.00,,,0.01,0,Wunderground v.1.15,2013-01-19 02:25:00,
2013-01-18 21:35:00,38.3,22.6,30.43,North,32767,-999.0,0.0,53,0.00,,,0.01,0,Wunderground v.1.15,2013-01-19 02:35:00,
2013-01-18 21:40:00,38.2,22.1,30.43,North,32767,-999.0,0.0,52,0.00,,,0.01,0,Wunderground v.1.15,2013-01-19 02:40:00,
2013-01-18 21:45:00,38.2,22.1,30.43,North,32767,-999.0,0.0,52,0.00,,,0.01,0,Wunderground v.1.15,2013-01-19 02:45:00,
2013-01-18 21:55:00,38.0,22.4,30.43,North,32767,-999.0,0.0,53,0.00,,,0.01,0,Wunderground v.1.15,2013-01-19 02:55:00,
2013-01-18 22:00:00,38.0,22.4,30.43,North,32767,-999.0,0.0,53,0.00,,,0.01,0,Wunderground v.1.15,2013-01-19 03:00:00,
2013-01-18 22:05:00,37.9,22.3,30.42,North,32767,-999.0,0.0,53,0.00,,,0.01,0,Wunderground v.1.15,2013-01-19 03:05:00,
2013-01-18 22:10:00,38.0,22.4,30.42,North,32767,-999.0,0.0,53,0.00,,,0.01,0,Wunderground v.1.15,2013-01-19 03:10:00,
2013-01-18 22:20:00,37.9,22.7,30.42,North,32767,-999.0,0.0,54,0.00,,,0.01,0,Wunderground v.1.15,2013-01-19 03:20:00,
2013-01-18 22:25:00,37.8,22.6,30.42,North,32767,-999.0,0.0,54,0.00,,,0.01,0,Wunderground v.1.15,2013-01-19 03:25:00,
2013-01-18 22:35:00,37.8,23.1,30.42,North,32767,-999.0,0.0,55,0.00,,,0.01,0,Wunderground v.1.15,2013-01-19 03:35:00,
2013-01-18 22:45:00,37.3,22.2,30.42,North,32767,-999.0,0.0,54,0.00,,,0.01,0,Wunderground v.1.15,2013-01-19 03:45:00,
2013-01-18 22:55:00,37.3,21.7,30.41,North,32767,-999.0,0.0,53,0.00,,,0.01,0,Wunderground v.1.15,2013-01-19 03:55:00,
2013-01-18 23:00:00,37.3,22.2,30.41,North,32767,-999.0,0.0,54,0.00,,,0.01,0,Wunderground v.1.15,2013-01-19 04:00:00,
2013-01-18 23:05:00,37.2,22.5,30.41,North,32767,-999.0,0.0,55,0.00,,,0.01,0,Wunderground v.1.15,2013-01-19 04:05:00,
2013-01-18 23:10:00,37.0,22.7,30.41,North,32767,-999.0,0.0,56,0.00,,,0.01,0,Wunderground v.1.15,2013-01-19 04:10:00,
2013-01-18 23:15:00,37.0,23.2,30.41,North,32767,-999.0,0.0,57,0.00,,,0.01,0,Wunderground v.1.15,2013-01-19 04:15:00,
2013-01-18 23:20:00,36.9,23.1,30.41,North,32767,-999.0,0.0,57,0.00,,,0.01,0,Wunderground v.1.15,2013-01-19 04:20:00,
2013-01-18 23:30:00,36.6,23.6,30.41,North,32767,-999.0,0.0,59,0.00,,,0.01,0,Wunderground v.1.15,2013-01-19 04:30:00,